When you browse on this site, cookies collect data to enhance your experience and personalize the content and advertising you see.
Visit our Privacy Policy to learn more. By continuing to use the site, you agree to this use of cookies and data.
  • In Spain
  • List of Countries
  • For 7 days
  • Water Temperature
  • Satellite Maps
  • Weather Map
  • Weather Widgets
  • user-avatar
    Login

    Hourly Weather Berberati

    Today, 22 April, Monday

    Time Temperature Precipitation Wind Pressure Humidity
    00:00 +26°C° 0.1 mm 1 mps 711 mmHg 84%
    01:00 +24°C° 0 mm 1 mps 711 mmHg 93%
    02:00 +24°C° 0 mm 1 mps 711 mmHg 94%
    03:00 +24°C° 0 mm 1 mps 711 mmHg 95%
    04:00 +24°C° 0 mm 1 mps 711 mmHg 96%
    05:00 +24°C° 0 mm 1 mps 711 mmHg 95%
    06:00 +25°C° 0 mm 1 mps 712 mmHg 93%
    07:00 +25°C° 0 mm 1 mps 712 mmHg 90%
    08:00 +28°C° 0 mm 2 mps 712 mmHg 80%
    09:00 +30°C° 0 mm 2 mps 713 mmHg 69%
    10:00 +32°C° 0 mm 2 mps 713 mmHg 58%
    11:00 +35°C° 0 mm 2 mps 712 mmHg 52%
    12:00 +36°C° 0 mm 1 mps 712 mmHg 46%
    13:00 +39°C° 0 mm 1 mps 712 mmHg 39%
    14:00 +37°C° 0 mm 1 mps 711 mmHg 39%
    15:00 +37°C° 0 mm 1 mps 710 mmHg 40%
    16:00 +36°C° 0 mm 1 mps 710 mmHg 40%
    17:00 +34°C° 0 mm 1 mps 710 mmHg 47%
    18:00 +32°C° 0 mm 1 mps 710 mmHg 53%
    19:00 +29°C° 0 mm 1 mps 710 mmHg 60%
    20:00 +29°C° 0 mm 1 mps 710 mmHg 64%
    21:00 +28°C° 0 mm 1 mps 711 mmHg 68%
    22:00 +27°C° 0 mm 1 mps 711 mmHg 72%
    23:00 +27°C° 0 mm 1 mps 711 mmHg 75%

    Tomorrow, 23 April, Tuesday

    Time Temperature Precipitation Wind Pressure Humidity
    00:00 +27°C° 0 mm 1 mps 711 mmHg 78%
    01:00 +26°C° 0 mm 1 mps 710 mmHg 80%
    02:00 +26°C° 0 mm 1 mps 710 mmHg 82%
    03:00 +25°C° 0 mm 1 mps 710 mmHg 84%
    04:00 +25°C° 0 mm 1 mps 710 mmHg 85%
    05:00 +26°C° 0 mm 1 mps 710 mmHg 84%
    06:00 +26°C° 0 mm 1 mps 710 mmHg 83%
    07:00 +26°C° 0 mm 1 mps 711 mmHg 82%
    08:00 +29°C° 0 mm 1 mps 712 mmHg 72%
    09:00 +31°C° 0 mm 1 mps 712 mmHg 63%
    10:00 +33°C° 0 mm 1 mps 713 mmHg 54%
    11:00 +35°C° 0 mm 1 mps 712 mmHg 49%
    12:00 +37°C° 0 mm 1 mps 712 mmHg 43%
    13:00 +39°C° 0 mm 1 mps 712 mmHg 38%
    14:00 +39°C° 0 mm 1 mps 711 mmHg 39%
    15:00 +37°C° 0 mm 1 mps 710 mmHg 40%
    16:00 +36°C° 0 mm 1 mps 710 mmHg 42%
    17:00 +34°C° 0 mm 1 mps 710 mmHg 48%
    18:00 +32°C° 0 mm 1 mps 710 mmHg 55%
    19:00 +30°C° 0 mm 1 mps 710 mmHg 61%
    20:00 +29°C° 0 mm 1 mps 711 mmHg 63%
    21:00 +29°C° 0 mm 1 mps 711 mmHg 64%
    22:00 +28°C° 0 mm 1 mps 712 mmHg 66%
    23:00 +26°C° 0.1 mm 0 mps 711 mmHg 67%

    Day after tomorrow, 24 April, Wednesday

    Time Temperature Precipitation Wind Pressure Humidity
    00:00 +25°C° 0.1 mm 0 mps 711 mmHg 69%
    01:00 +25°C° 0.1 mm 0 mps 711 mmHg 71%
    02:00 +26°C° 0.4 mm 1 mps 711 mmHg 77%
    03:00 +25°C° 0.4 mm 1 mps 710 mmHg 83%
    04:00 +24°C° 0.4 mm 1 mps 710 mmHg 89%
    05:00 +25°C° 0.2 mm 1 mps 711 mmHg 89%
    06:00 +25°C° 0.2 mm 1 mps 711 mmHg 89%
    07:00 +25°C° 0.2 mm 1 mps 712 mmHg 90%
    08:00 +28°C° 0 mm 1 mps 713 mmHg 77%
    09:00 +31°C° 0 mm 1 mps 713 mmHg 64%
    10:00 +34°C° 0 mm 1 mps 714 mmHg 51%
    11:00 +35°C° 0 mm 1 mps 713 mmHg 47%
    12:00 +37°C° 0 mm 1 mps 713 mmHg 42%
    13:00 +39°C° 0 mm 1 mps 712 mmHg 38%
    14:00 +39°C° 0 mm 1 mps 711 mmHg 39%
    15:00 +37°C° 0 mm 1 mps 711 mmHg 40%
    16:00 +37°C° 0 mm 1 mps 711 mmHg 41%
    17:00 +35°C° 0 mm 1 mps 711 mmHg 48%
    18:00 +33°C° 0 mm 1 mps 711 mmHg 54%
    19:00 +31°C° 0 mm 1 mps 711 mmHg 60%
    20:00 +30°C° 0.8 mm 1 mps 712 mmHg 68%
    21:00 +28°C° 0.8 mm 1 mps 712 mmHg 76%
    22:00 +27°C° 0.8 mm 2 mps 713 mmHg 84%
    23:00 +27°C° 0.1 mm 2 mps 712 mmHg 86%

    25 April, Thursday

    Time Temperature Precipitation Wind Pressure Humidity
    00:00 +26°C° 0.1 mm 1 mps 712 mmHg 89%
    01:00 +25°C° 0.1 mm 1 mps 712 mmHg 91%
    02:00 +25°C° 1.3 mm 1 mps 712 mmHg 93%
    03:00 +24°C° 1.3 mm 1 mps 712 mmHg 95%
    04:00 +24°C° 1.3 mm 1 mps 712 mmHg 96%
    05:00 +24°C° 0 mm 1 mps 712 mmHg 95%
    06:00 +25°C° 0 mm 1 mps 712 mmHg 94%
    07:00 +25°C° 0 mm 1 mps 713 mmHg 93%
    08:00 +27°C° 0 mm 1 mps 713 mmHg 82%
    09:00 +30°C° 0 mm 1 mps 714 mmHg 72%
    10:00 +32°C° 0 mm 2 mps 714 mmHg 61%
    11:00 +35°C° 0 mm 2 mps 713 mmHg 55%
    12:00 +36°C° 0 mm 2 mps 713 mmHg 49%
    13:00 +37°C° 0 mm 1 mps 712 mmHg 42%
    14:00 +37°C° 0 mm 1 mps 711 mmHg 42%
    15:00 +37°C° 0 mm 1 mps 711 mmHg 42%
    16:00 +37°C° 0 mm 1 mps 710 mmHg 41%
    17:00 +35°C° 0 mm 1 mps 710 mmHg 47%
    18:00 +32°C° 0 mm 1 mps 711 mmHg 53%
    19:00 +30°C° 0 mm 1 mps 711 mmHg 59%
    20:00 +30°C° 0 mm 1 mps 711 mmHg 62%
    21:00 +29°C° 0 mm 1 mps 712 mmHg 64%
    22:00 +28°C° 0 mm 1 mps 712 mmHg 66%
    23:00 +28°C° 0 mm 1 mps 711 mmHg 69%

    26 April, Friday

    Time Temperature Precipitation Wind Pressure Humidity
    00:00 +27°C° 0 mm 1 mps 711 mmHg 72%
    01:00 +27°C° 0 mm 1 mps 711 mmHg 75%
    02:00 +26°C° 0.1 mm 1 mps 711 mmHg 78%
    03:00 +26°C° 0.1 mm 1 mps 710 mmHg 81%
    04:00 +25°C° 0.1 mm 1 mps 710 mmHg 84%
    05:00 +26°C° 0.5 mm 1 mps 711 mmHg 84%
    06:00 +26°C° 0.5 mm 1 mps 712 mmHg 85%
    07:00 +26°C° 0.5 mm 1 mps 712 mmHg 86%
    08:00 +28°C° 0 mm 1 mps 713 mmHg 77%
    09:00 +31°C° 0 mm 2 mps 713 mmHg 68%
    10:00 +34°C° 0 mm 2 mps 713 mmHg 60%
    11:00 +35°C° 0 mm 2 mps 713 mmHg 54%
    12:00 +37°C° 0 mm 2 mps 712 mmHg 49%
    13:00 +38°C° 0 mm 2 mps 711 mmHg 44%
    14:00 +38°C° 0 mm 2 mps 710 mmHg 43%
    15:00 +37°C° 0 mm 1 mps 710 mmHg 43%
    16:00 +37°C° 0 mm 1 mps 709 mmHg 42%
    17:00 +35°C° 0 mm 1 mps 709 mmHg 49%
    18:00 +32°C° 0 mm 1 mps 710 mmHg 56%
    19:00 +30°C° 0 mm 1 mps 710 mmHg 63%
    20:00 +30°C° 0 mm 1 mps 710 mmHg 65%
    21:00 +29°C° 0 mm 1 mps 710 mmHg 67%
    22:00 +29°C° 0 mm 1 mps 710 mmHg 69%
    23:00 +28°C° 0 mm 1 mps 710 mmHg 71%

    27 April, Saturday

    Time Temperature Precipitation Wind Pressure Humidity
    00:00 +27°C° 0 mm 1 mps 710 mmHg 73%
    01:00 +27°C° 0 mm 1 mps 710 mmHg 75%
    02:00 +26°C° 0.7 mm 1 mps 710 mmHg 81%
    03:00 +25°C° 0.7 mm 1 mps 711 mmHg 88%
    04:00 +24°C° 0.7 mm 1 mps 711 mmHg 95%
    05:00 +22°C° 0.6 mm 0 mps 711 mmHg 95%
    06:00 +23°C° 0.6 mm 0 mps 712 mmHg 95%
    07:00 +23°C° 0.6 mm 0 mps 713 mmHg 95%
    08:00 +26°C° 0.1 mm 1 mps 713 mmHg 91%
    09:00 +27°C° 0.1 mm 1 mps 713 mmHg 86%
    10:00 +28°C° 0.1 mm 1 mps 714 mmHg 82%
    11:00 +29°C° 0 mm 2 mps 713 mmHg 75%
    12:00 +30°C° 0 mm 2 mps 712 mmHg 68%
    13:00 +32°C° 0 mm 2 mps 711 mmHg 60%
    14:00 +31°C° 0 mm 2 mps 711 mmHg 62%
    15:00 +31°C° 0 mm 1 mps 710 mmHg 64%
    16:00 +31°C° 0 mm 1 mps 710 mmHg 66%
    17:00 +29°C° 0 mm 1 mps 710 mmHg 69%
    18:00 +28°C° 0 mm 1 mps 711 mmHg 73%
    19:00 +25°C° 0 mm 0 mps 711 mmHg 77%
    20:00 +25°C° 0 mm 0 mps 711 mmHg 80%
    21:00 +26°C° 0 mm 1 mps 712 mmHg 82%
    22:00 +26°C° 0 mm 1 mps 712 mmHg 84%
    23:00 +25°C° 0 mm 1 mps 712 mmHg 86%
    Show more